Location: Emblem
(62.4273°N, 6.4710°E)
Time: 07:38:59
(UTC+02:00)

Transit 2A - Pass Details

Date: 08 March 2024
Orbit: 596 x 956 km, 66.7° (Epoch: 24 April)

Event Time Altitude Azimuth Distance (km) Brightness Sun altitude
Rises 18:57:54 0° 228° (SW) 2,838 9.8 -5.5°
Reaches altitude 10° 19:00:06 10° 227° (SW) 1,947 8.9 -5.8°
Maximum altitude 19:04:26 75° 142° (SE) 648 5.6 -6.3°
Drops below altitude 10° 19:09:02 10° 58° (ENE) 2,066 7.8 -6.8°
Enters shadow 19:10:41 - 57° (ENE) 2,729 8.4 -7.0°
